Regional Weather Roundup
Issued by NWS

Home | Current Version | Previous Version | Text Only | Print | Product List | Glossary Off
Versions: 1 2 3 4 5 6 7 8 9 10 11 12 13 14 15 16 17 18 19 20 21 22 23 24 25 26 27 28 29 30 31 32 33 34 35 36 37 38 39 40 41 42 43 44 45 46 47 48 49 50

000
ASUS43 KFSD 110110
RWRSD

WEATHER ROUNDUP FOR SOUTH DAKOTA
NATIONAL WEATHER SERVICE SIOUX FALLS SD
700 PM CST SAT DEC 10 2016

NOTE: "FAIR" INDICATES FEW OR NO CLOUDS BELOW 12,000 FEET WITH NO
SIGNIFICANT WEATHER AND/OR OBSTRUCTIONS TO VISIBILITY.


SDZ001>005-009-010-012>017-110200-
NORTHWEST AND NORTH CENTRAL SOUTH DAKOTA

CITY           SKY/WX    TMP DP  RH WIND       PRES   REMARKS
BUFFALO          N/A      2  -3  80 SE13      29.71S WCI -15
FAITH            N/A      3   1  91 E14       29.84S WCI -15
MOBRIDGE       LGT SNOW   5  -3  69 E14       29.95F WCI -12
$$

SDZ012>016-024>037-041>051-057-063-072>074-110200-
SOUTHWEST AND SOUTH CENTRAL SOUTH DAKOTA

CITY           SKY/WX    TMP DP  RH WIND       PRES   REMARKS
RAPID CTY ARPT CLOUDY     5   1  83 E8        29.73R WCI  -8
PIERRE         CLOUDY     9   6  88 NE15      29.90R WCI  -8
CUSTER         CLOUDY    34  26  72 SW7       29.55F WCI  28
ELLSWORTH AFB  CLOUDY     5   1  85 E8        29.72R WCI  -8
PHILIP         CLOUDY     7   5  91 E9        29.84F WCI  -7
PINE RIDGE     CLOUDY     9   7  92 E8        29.68F WCI  -3
SPEARFISH      FAIR       5   1  85 NE12      29.66S WCI -11
WINNER         CLOUDY    22  18  85 E17       29.82F WCI   8
$$

SDZ004>011-016>023-039-040-110200-
NORTHEAST SOUTH DAKOTA

CITY           SKY/WX    TMP DP  RH WIND       PRES   REMARKS
ABERDEEN       LGT SNOW   6  -1  73 E13       30.07F WCI -10
WATERTOWN      LGT SNOW   5   1  83 E12G21    30.01F VSB 1   WCI -11
BROOKINGS      LGT SNOW   9   5  84 E14       30.02F FOG     WCI  -7
SISSETON         N/A      4   0  83 E6        30.14F WCI  -7
$$

SDZ017-020-022-023-036>040-048>070-110200-
SOUTHEAST SOUTH DAKOTA

CITY           SKY/WX    TMP DP  RH WIND       PRES   REMARKS
SIOUX FALLS    LGT SNOW  17  15  92 E13       30.02F FOG     WCI   4
HURON          CLOUDY    13  10  88 E14       30.00F WCI  -2
CHAMBERLAIN    CLOUDY    19  18  94 E10G18    29.88F WCI   8
MITCHELL       CLOUDY    19  16  88 SE15      29.98F WCI   5
YANKTON        CLOUDY    23  18  80 E13       29.97F WCI  11
$$

ABBREVIATIONS USED IN REMARKS
   TC - TEMPERATURE IN CELSIUS
  WCI - WIND CHILL INDEX
   HX - HEAT INDEX
  VSB - VISIBILITY





USA.gov is the U.S. government's official web portal to all federal, state and local government web resources and services.